Weather History for Kirksville, MO

Change the Weather History Date:

Wednesday, October 23, 2013

  Actual Average Record
Temperature  
Mean Temperature 36 °F 51 °F  
Max Temperature 45 °F 61 °F 87 °F (1939)
Min Temperature 27 °F 40 °F 18 °F (1937)
Degree Days  
Heating Degree Days 29 14  
Month to date heating degree days 240 252  
Since 1 July heating degree days 310 359  
Cooling Degree Days 0 0  
Month to date cooling degree days 32 10  
Year to date cooling degree days 1028 937  
Moisture  
Dew Point 32 °F    
Average Humidity 75    
Maximum Humidity 100    
Minimum Humidity 49    
Precipitation  
Precipitation 0.04 in 0.11 in 3.88 in (1957)
Month to date precipitation 0.72 2.56  
Year to date precipitation 32.30 34.08  
Sea Level Pressure  
Sea Level Pressure 30.13 in    
Wind  
Wind Speed 6 mph (West)    
Max Wind Speed 16 mph    
Max Gust Speed 21 mph    
Visibility 8 miles    
Events Rain    
T = Trace of Precipitation, MM = Missing Value Source: NWS Daily Summary

Daily Weather History Graph

Daily Weather History Graph

Search for Another Location

Airport:

Trip Planner

Search our weather history database for the weather conditions in past years. The results will help you decide how hot, cold, wet, or windy it might be!

Date:

Astronomy

Oct. 23, 2013 Rise Set
Actual Time 7:29 AM CDT 6:18 PM CDT
Civil Twilight 7:01 AM CDT 6:46 PM CDT
Nautical Twilight 6:30 AM CDT 7:17 PM CDT
Astronomical Twilight 5:58 AM CDT 7:49 PM CDT
Moon 9:50 PM CDT (10/23) 11:47 AM CDT (10/23)
Length of Visible Light 11h 44m
Length of Day
10h 49m
Waning Gibbous, 79% of the Moon is Illuminated
Oct 23
Waning Gibbous
Oct 26
Last Quarter
Nov 3
New
Nov 9
First Quarter
Nov 17
Full

Hourly Weather History & Observations

Time (CDT) Temp. Windchill Dew Point Humidity Pressure Visibility Wind Dir Wind Speed Gust Speed Precip Events Conditions
12:55 AM 32.0 °F 25.6 °F 30.0 °F 92% 30.09 in 10.0 mi WNW 6.9 mph - N/A   Clear
1:55 AM 34.0 °F 28.8 °F 30.9 °F 89% 30.09 in 10.0 mi NW 5.8 mph - N/A   Overcast
2:55 AM 34.0 °F 31.0 °F 32.0 °F 92% 30.09 in 10.0 mi NW 3.5 mph - N/A   Overcast
3:55 AM 34.0 °F 28.8 °F 30.9 °F 89% 30.09 in 10.0 mi WNW 5.8 mph - N/A   Overcast
4:55 AM 32.0 °F 28.7 °F 28.9 °F 88% 30.10 in 10.0 mi West 3.5 mph - N/A   Scattered Clouds
5:55 AM 28.9 °F 22.8 °F 27.0 °F 92% 30.12 in 10.0 mi West 5.8 mph - N/A   Partly Cloudy
6:55 AM 28.9 °F 23.9 °F 27.0 °F 92% 30.14 in 10.0 mi West 4.6 mph - N/A   Clear
7:55 AM 28.0 °F 22.8 °F 26.1 °F 92% 30.16 in 10.0 mi West 4.6 mph - N/A   Clear
8:55 AM 34.0 °F 28.0 °F 30.0 °F 85% 30.17 in 10.0 mi WNW 6.9 mph - N/A   Clear
9:55 AM 41.0 °F 35.2 °F 28.0 °F 60% 30.17 in 10.0 mi NW 9.2 mph - N/A   Clear
10:55 AM 43.0 °F 38.8 °F 24.1 °F 47% 30.17 in 10.0 mi WNW 6.9 mph 16.1 mph N/A   Clear
11:55 AM 43.0 °F 37.2 °F 24.1 °F 47% 30.17 in 10.0 mi NW 10.4 mph - N/A   Clear
12:55 PM 44.1 °F 40.1 °F 26.1 °F 49% 30.16 in 10.0 mi West 6.9 mph - N/A   Scattered Clouds
1:55 PM 44.1 °F 40.1 °F 28.0 °F 53% 30.12 in 10.0 mi WSW 6.9 mph - N/A   Overcast
2:55 PM 39.0 °F 34.0 °F 33.1 °F 79% 30.12 in 8.0 mi West 6.9 mph - 0.00 in Rain Light Rain
3:27 PM 39.2 °F 35.0 °F 33.8 °F 81% 30.09 in 10.0 mi West 5.8 mph - 0.01 in Rain Light Rain
3:55 PM 39.0 °F 34.0 °F 34.0 °F 82% 30.12 in 10.0 mi West 6.9 mph - 0.01 in   Overcast
4:55 PM 37.9 °F 32.7 °F 35.1 °F 89% 30.14 in 6.0 mi WSW 6.9 mph - 0.00 in Rain Light Rain
5:02 PM 37.4 °F 31.4 °F 35.6 °F 93% 30.11 in 5.0 mi West 8.1 mph - 0.01 in Rain Light Rain
5:15 PM 37.4 °F 32.8 °F 35.6 °F 93% 30.11 in 5.0 mi West 5.8 mph - 0.01 in Rain Light Rain
5:47 PM 37.4 °F 32.8 °F 35.6 °F 93% 30.11 in 5.0 mi West 5.8 mph - 0.03 in Rain Light Rain
5:55 PM 37.0 °F 32.4 °F 35.1 °F 93% 30.15 in 6.0 mi West 5.8 mph - 0.03 in   Overcast
6:44 PM 37.4 °F 34.9 °F 35.6 °F 93% 30.12 in 8.0 mi West 3.5 mph - 0.00 in   Overcast
6:55 PM 36.0 °F 32.1 °F 35.1 °F 97% 30.16 in 8.0 mi West 4.6 mph - 0.00 in   Overcast
7:55 PM 37.0 °F - 35.1 °F 93% 30.17 in 7.0 mi Calm Calm - N/A   Overcast
8:55 PM 37.0 °F - 35.1 °F 93% 30.16 in 6.0 mi Calm Calm - N/A   Overcast
9:21 PM 37.4 °F - 37.4 °F 100% 30.13 in 6.0 mi Calm Calm - N/A   Overcast
9:28 PM 37.4 °F 34.9 °F 37.4 °F 100% 30.13 in 6.0 mi WNW 3.5 mph - N/A   Overcast
9:55 PM 37.0 °F 34.5 °F 37.0 °F 100% 30.16 in 6.0 mi West 3.5 mph - N/A   Overcast
10:55 PM 37.0 °F 33.3 °F 37.0 °F 100% 30.17 in 6.0 mi West 4.6 mph - N/A   Overcast
11:55 PM 37.0 °F 32.4 °F 37.0 °F 100% 30.18 in 7.0 mi West 5.8 mph - N/A   Overcast